SCP
0 0 0 0 0 0 0 0 0 0 0 0 0 0 0 0 0 0 0 0 0 0 0 0 0 0 0 0 0 0 0 0 0 0 0 0 0 0 0 0 0 0 0
0 0 0 0 0 0 0 0 0 0 0 0 0 0 0 0 0 0 0 0 0 0 0 0 0 0 0 0 0 0 0 0 0 0 0 0 0 0 0 0 0 0 0
0 0 0 0 0 0 0 0 0 0 0 0 0 0 0 0 0 0 0 0 0 0 0 0 0 0 0 0 0 0 0 0 0 0 0 0 0 0 0 0 0 0 0
0 0 0 0 0 0 0 0 0 0 0 0 0 0 0 0 0 0 0 0 0 0 0 0 0 0 0 0 0 0 0 0 0 0 0 0 0 0 0 0 0 0 0
0 0 0 0 0 0 0 0 0 0 0 0 0 0 0 0 0 0 0 0 0 0 0 0 0 0 0 0 0 0 0 0 0 0 0 0 0 0 0 0 0 0 0
0 0 0 0 0 0 0 0 0 0 0 0 0 0 0 0 0 0 0 0 0 0 0 0 0 0 0 0 0 0 0 0 0 0 0 0 0 0 0 0 0 0 0
0 0 0 0 0 0 0 0 0 0 0 0 0 0 0 0 0 0 0 0 0 0 0 0 0 0 0 0 0 0 0 0 0 0 0 0 0 0 0 0 0 0 0
0 0 0 0 0 0 0 0 0 0 0 0 0 0 0 0 0 0 0 0 0 0 0 0 0 0 0 0 0 0 0 0 0 0 0 0 0 0 0 0 0 0 0
1 1 0 0 0 0 0 0 0 0 0 0 0 0 0 0 0 0 0 0 0 0 0 0 0 0 0 0 0 0 0 0 0 0 0 0 0 0 0 0 0 0 0
1 1 0 0 0 0 0 0 0 0 0 0 0 0 0 0 0 0 0 0 0 0 0 0 0 0 0 0 0 0 0 0 0 0 0 0 0 0 0 0 0 0 0
1 1 1 0 0 0 0 0 0 0 0 0 0 0 0 0 0 0 0 0 0 0 0 0 0 0 0 0 0 0 0 0 0 0 0 0 0 0 0 0 0 0 0
2 1 1 1 0 0 0 0 0 0 0 0 0 0 0 0 0 0 0 0 0 0 0 0 0 0 0 0 0 0 0 0 0 0 0 0 0 0 0 0 0 0 0
2 2 1 1 0 0 0 0 0 0 0 0 0 0 0 0 0 0 0 0 0 0 0 0 0 0 0 0 0 0 0 0 0 0 0 0 0 0 0 0 0 0 0
2 2 1 1 1 0 0 0 0 0 0 0 0 0 0 0 0 0 0 0 0 0 0 0 0 0 0 0 0 0 0 0 0 0 0 0 0 0 0 0 0 0 0
1 1 1 1 1 0 0 0 0 0 0 0 0 0 0 0 0 0 0 0 0 0 0 0 0 0 0 0 0 0 0 0 0 0 0 0 0 0 0 0 0 0 0
1 1 1 1 0 0 0 0 0 0 0 0 0 0 0 0 0 0 0 0 0 0 0 0 0 0 0 0 0 0 0 0 0 0 0 0 0 0 0 0 0 0 0
1 1 1 1 0 0 0 0 0 0 0 0 0 0 0 0 0 0 0 0 0 0 0 0 0 0 0 0 0 0 0 0 0 0 0 0 0 0 0 0 0 0 0
0 0 0 0 0 0 0 0 0 0 0 0 0 0 0 0 0 0 0 0 0 0 0 0 0 0 0 0 0 0 0 0 0 0 0 0 0 0 0 0 0 0 0
0 0 0 0 0 0 0 0 0 0 0 0 0 0 0 0 0 0 0 0 0 0 0 0 0 0 0 0 0 0 0 0 0 0 0 0 0 0 0 0 0 0 0
0 0 0 0 0 0 0 0 0 0 0 0 0 0 0 0 0 0 0 0 0 0 0 0 0 0 0 0 0 0 0 0 0 0 0 0 0 0 0 0 0 0 0
0 0 0 0 0 0 0 0 0 0 0 0 0 0 0 0 0 0 0 0 0 0 0 0 0 0 0 0 0 0 0 0 0 0 0 0 0 0 0 0 0 0 0
0 0 0 0 0 0 0 0 0 0 0 0 0 0 0 0 0 0 0 0 0 0 0 0 0 0 0 0 0 0 0 0 0 0 0 0 0 0 0 0 0 0 0
0 0 0 0 0 0 0 0 0 0 0 0 0 0 0 0 0 0 0 0 0 0 0 0 0 0 0 0 0 0 0 0 0 0 0 0 0 0 0 0 0 0 0
0 0 0 0 0 0 0 0 0 0 0 0 0 0 0 0 0 0 0 0 0 0 0 0 0 0 0 0 0 0 0 0 0 0 0 0 0 0 0 0 0 0 0
0 0 0 0 0 0 0 0 0 0 0 0 0 0 0 0 0 0 0 0 0 0 0 0 0 0 0 0 0 0 0 0 0 0 0 0 0 0 0 0 0 0 0
0 0 0 0 0 0 0 0 0 0 0 0 0 0 0 0 0 0 0 0 0 0 0 0 0 0 0 0 0 0 0 0 0 0 0 0 0 0 0 0 0 0 0
Wind_Speed
8 8 7 7 7 6 6 6 6 6 6 5 4 4 5 5 5 5 6 8 8 9 8 7 7 7 7 8 8 8 8 8 8 8 9 9 10 10 10 10 11 11 11
9 9 8 8 8 7 6 6 7 6 5 4 5 5 5 5 5 6 6 7 7 7 8 7 7 6 7 7 7 6 6 6 7 7 7 8 8 8 9 9 10 10 10
11 10 9 8 8 8 8 6 7 5 4 4 5 5 5 6 6 6 6 5 6 6 7 7 7 6 6 6 5 5 5 5 5 5 5 6 6 7 7 8 9 9 10
14 11 10 9 9 8 8 7 7 6 6 5 5 5 5 5 7 6 6 6 5 5 7 7 6 6 5 4 4 4 4 3 3 3 3 4 5 6 6 7 8 9 9
16 13 11 10 10 9 8 8 8 7 7 6 5 5 5 6 6 6 7 7 6 6 6 7 7 5 4 3 3 4 3 3 3 3 4 4 5 6 7 8 8 9 10
16 15 11 12 12 10 9 9 10 8 6 6 5 5 5 5 6 7 8 7 6 7 7 7 6 5 4 2 2 3 4 4 4 5 5 6 7 8 9 9 10 10 11
15 15 12 13 13 12 12 13 10 10 7 7 5 5 5 6 7 7 7 7 8 8 8 7 5 5 4 3 0 3 4 5 6 6 7 8 9 10 11 11 12 12 13
15 13 16 13 14 12 14 15 13 9 7 8 7 5 5 6 7 8 8 7 9 8 8 8 7 6 4 3 2 1 3 5 7 7 8 9 10 12 13 13 14 15 15
16 15 17 15 14 14 13 16 16 14 10 9 9 7 6 7 6 7 10 9 9 8 8 8 8 7 5 3 3 3 1 3 6 8 9 10 12 13 15 15 16 17 17
16 16 16 16 15 13 14 15 16 14 13 10 8 7 5 2 5 6 6 8 9 9 9 7 7 7 6 4 3 2 1 3 5 8 10 12 14 15 17 18 18 19 19
15 16 16 15 15 14 16 16 16 16 13 12 9 7 6 4 5 5 5 7 7 8 8 8 6 6 6 5 4 3 1 3 6 9 12 15 16 18 19 19 20 19 19
11 15 15 15 15 14 16 16 16 18 15 15 12 9 8 7 8 6 5 5 6 6 7 6 6 5 5 5 4 3 1 4 8 12 14 17 18 18 19 19 20 20 20
10 13 14 14 14 15 15 15 15 16 17 16 14 10 9 8 5 6 5 4 4 4 5 5 5 5 5 4 5 4 3 5 9 13 16 18 18 18 19 20 20 20 21
11 12 14 13 14 14 13 12 11 13 12 13 12 10 6 4 4 4 5 6 5 4 4 5 4 5 5 4 3 4 5 6 10 14 17 18 19 19 19 20 20 21 21
9 11 12 12 12 12 11 10 9 11 9 9 8 8 5 4 3 2 3 3 5 5 4 4 3 4 4 4 4 6 7 8 12 16 17 18 19 19 20 21 21 21 21
8 8 9 10 10 10 9 9 7 7 8 7 6 8 6 5 5 4 4 4 3 4 3 2 2 3 4 4 6 7 8 11 14 16 17 18 19 20 21 21 21 21 22
5 6 7 7 8 9 9 9 8 9 10 9 9 10 9 8 6 5 5 5 4 4 3 2 2 2 4 5 6 7 7 8 9 14 17 19 20 21 21 21 21 21 21
3 3 4 5 6 8 9 10 10 11 11 11 11 11 11 8 8 6 5 5 4 3 3 3 3 4 5 6 7 8 8 8 9 14 18 19 20 21 21 20 20 21 21
1 2 2 4 5 6 8 8 9 9 9 9 10 10 10 10 9 6 6 5 3 3 2 2 3 3 4 5 7 8 9 9 9 11 15 17 19 19 19 20 21 21 22
4 5 5 5 5 6 6 8 9 10 10 10 9 9 9 8 8 7 5 5 4 3 3 4 5 5 5 6 6 7 7 7 8 9 12 14 16 18 20 21 22 23 23
8 8 9 9 9 7 7 10 10 11 12 12 10 9 8 9 9 6 4 4 4 3 4 4 5 5 6 5 6 6 8 8 9 9 9 8 9 10 12 16 19 21 22
10 10 10 10 10 8 14 16 13 11 11 11 10 9 8 8 7 5 4 5 6 5 5 5 6 7 7 7 6 6 8 9 8 5 8 10 10 12 11 11 16 21 23
11 11 11 11 11 14 18 19 17 11 11 9 8 7 5 5 5 2 1 3 5 7 8 7 8 8 8 7 7 9 9 10 11 10 11 13 11 12 11 12 20 23 24
10 10 11 11 12 14 19 20 18 12 10 9 7 6 5 3 2 2 3 4 5 5 6 6 7 8 8 8 8 9 11 12 13 11 11 12 11 12 11 11 18 22 24
10 9 10 11 12 13 17 16 13 7 7 7 5 4 2 1 2 4 4 4 5 5 6 9 11 12 14 14 12 9 9 9 10 10 8 8 9 11 11 12 13 18 20
9 9 10 9 9 9 12 12 9 5 5 4 3 2 1 2 3 4 4 5 6 6 6 7 8 9 10 11 12 10 8 8 7 7 6 6 8 8 8 8 9 9 11
Wind_Direction
202 203 204 199 202 198 194 201 202 187 185 176 174 176 173 169 165 147 122 107 111 116 115 111 105 100 94 88 81 72 62 57 55 53 50 47 41 36 33 30 26 23 19
206 206 206 205 204 201 202 203 205 194 190 185 179 180 179 173 176 170 146 124 106 117 125 121 112 103 96 88 84 76 63 54 50 46 43 40 35 29 25 22 19 15 11
210 208 208 205 205 201 198 203 198 197 190 185 187 185 185 186 181 177 169 156 139 122 131 130 121 111 97 84 76 71 61 52 41 34 30 26 22 15 12 11 9 5 1
213 211 210 207 204 197 194 192 190 191 188 193 189 184 188 187 194 184 177 177 165 155 140 131 127 117 102 81 63 53 44 36 19 8 5 0 356 350 349 351 351 350 348
214 212 212 207 201 198 197 193 195 196 193 190 188 186 191 192 192 192 190 184 175 176 159 131 120 108 108 87 47 23 7 349 328 321 322 321 321 321 322 325 328 330 331
216 215 213 209 200 200 198 195 193 195 194 177 173 185 197 201 203 202 197 188 185 185 184 169 164 137 123 101 31 350 333 317 305 296 298 301 302 304 305 309 312 314 315
218 215 213 208 202 204 202 198 189 186 182 168 166 184 197 211 215 207 205 199 194 191 192 192 195 190 170 152 100 327 314 308 302 296 294 294 296 298 299 300 303 305 307
219 216 215 210 204 206 203 199 188 187 177 183 185 181 198 199 212 212 208 210 204 193 200 201 199 201 204 206 131 313 311 309 304 300 297 296 299 300 299 299 299 301 302
219 217 219 216 208 206 204 199 194 191 185 191 201 196 198 206 179 189 208 208 208 203 202 199 201 199 198 202 193 169 347 317 306 304 305 305 304 302 300 299 298 297 298
220 219 219 219 213 211 209 203 201 200 193 189 200 226 247 223 183 175 192 207 209 212 207 195 196 192 191 188 160 109 73 336 320 317 313 308 305 301 299 297 297 297 297
220 217 218 217 215 213 214 207 203 204 201 196 188 184 201 214 230 198 180 183 199 209 205 198 191 187 183 184 186 137 92 332 322 317 311 307 304 301 299 298 297 297 297
222 219 217 216 216 215 215 211 205 208 207 205 197 190 185 185 197 203 189 172 185 183 191 192 193 187 181 182 171 136 206 313 315 312 308 305 303 302 301 300 298 296 295
229 221 215 217 218 219 219 214 208 209 211 210 206 205 206 205 181 192 190 155 158 150 179 194 195 185 177 184 171 175 238 297 307 307 305 303 304 304 302 299 296 293 291
238 228 219 219 219 220 219 217 213 211 211 212 212 203 195 187 176 176 168 151 150 156 178 174 167 183 179 192 179 227 261 278 297 302 301 302 302 300 297 294 293 292 291
248 236 223 217 216 215 213 210 213 211 208 207 199 186 168 147 134 126 123 141 153 164 172 156 164 180 191 206 206 254 273 278 291 295 297 297 295 293 292 291 289 288 288
247 238 226 216 210 204 199 197 197 194 188 182 166 161 148 140 126 113 105 90 90 120 139 145 176 172 192 216 237 267 278 285 281 286 289 290 290 289 288 286 285 285 285
245 231 221 209 200 193 187 184 181 175 173 166 160 156 147 139 128 117 106 100 94 102 141 144 170 196 219 239 253 264 272 277 280 281 284 288 288 286 284 284 283 283 282
252 228 205 191 184 180 177 177 174 170 168 164 157 148 142 133 123 117 112 110 114 118 143 184 203 208 232 253 268 275 278 279 280 284 287 287 285 284 284 282 281 280 281
62 106 143 154 160 164 165 165 161 156 152 146 143 140 135 130 124 120 118 121 124 132 152 208 236 230 242 251 268 272 275 276 279 281 284 283 283 283 282 281 281 283 283
72 85 92 100 111 123 131 133 130 126 121 115 115 116 117 120 124 127 127 134 140 158 187 221 244 248 250 257 264 275 282 284 286 286 282 281 280 281 280 280 280 280 280
65 75 82 85 88 94 105 112 111 112 109 102 96 94 98 109 123 129 136 153 168 191 211 231 246 255 258 262 268 282 287 293 291 287 283 280 281 278 279 277 276 274 275
68 73 78 84 86 92 108 108 108 103 102 102 100 95 96 97 112 126 159 190 202 215 228 240 255 260 269 277 283 286 292 294 296 290 290 288 287 283 280 276 277 278 278
72 75 78 81 88 99 103 102 99 96 95 95 99 102 102 105 102 109 220 256 246 251 252 259 266 271 281 286 292 289 284 283 282 286 291 287 285 281 280 276 278 278 279
70 74 78 80 82 87 92 93 93 88 90 93 95 101 109 118 144 203 222 236 246 249 256 264 272 279 281 283 277 277 281 282 281 277 272 278 281 280 283 280 279 278 279
69 69 73 77 80 83 87 92 93 93 97 99 105 116 132 170 229 254 250 252 261 263 257 267 277 280 282 281 282 283 279 278 282 284 282 277 280 289 287 281 278 278 277
72 74 73 75 83 91 97 100 101 103 110 117 128 144 197 295 288 284 280 273 277 288 292 285 278 275 275 275 274 265 263 265 273 281 274 271 285 303 294 277 279 284 283